Location: Unspecified
(22.6800°N, 112.2000°E)
Time: 12:51:45
(UTC+08:00)

Transit 2A - Pass Details

Date: 11 August 2021
Orbit: 595 x 963 km, 66.7° (Epoch: 16 September)

Event Time Altitude Azimuth Distance (km) Brightness Sun altitude
Rises 04:09:42 0° 224° (SW) 2,819 - -25.5°
Reaches altitude 10° 04:12:08 10° 236° (SW) 1,921 - -25.0°
Maximum altitude 04:15:52 29° 297° (WNW) 1,111 - -24.2°
Exits shadow 04:17:11 25° 328° (NNW) 1,248 7.0 -24.0°
Drops below altitude 10° 04:19:45 10° 358° (N) 1,995 8.5 -23.5°
Sets 04:22:20 0° 9° (N) 2,949 9.6 -23.0°
